Location: Mary A Oil Field
(38.5606°N, 98.9545°W)
Time: 18:33:42
(UTC+00:00)

Meteor 1-24 Rocket - Pass Details

Date: 20 January 2020
Orbit: 791 x 927 km, 81.3° (Epoch: 27 February)

Event Time Altitude Azimuth Distance (km) Brightness Sun altitude
Exits shadow 11:53:08 34° 231° (SW) 1,423 4.5 -22.6°
Drops below altitude 10° 11:57:01 10° 199° (SSW) 2,584 6.1 -21.9°
Sets 11:59:37 0° 193° (SSW) 3,535 6.9 -21.4°
